CW3363 Weather Reports


Display with metric or nautical units.
time (UTC)temp
F
wind
direction
speed
MPH
gust
MPH
rain 1hr
in
rain 24hr
in
rain mn
in
humidity
%
barometer
mb
20260906234852 88 141 0.0 3.0 0.00 0.00 0.00 69 1011.6
20260906234322 88 196 1.0 4.0 0.00 0.00 0.00 68 1011.3
20260906233834 88 195 3.0 4.0 0.00 0.00 0.00 70 1011.3
20260906233328 88 149 1.0 4.0 0.00 0.00 0.00 72 1011.3
20260906232840 87 138 3.0 4.0 0.00 0.00 0.00 71 1011.7
20260906232330 87 137 2.0 5.0 0.00 0.00 0.00 72 1011.7
20260906231843 88 126 2.0 5.0 0.00 0.00 0.00 72 1011.7
20260906231334 88 129 3.0 6.0 0.00 0.00 0.00 71 1011.7
20260906230844 89 160 3.0 6.0 0.00 0.00 0.00 69 1011.7
20260906230335 90 133 4.0 6.0 0.00 0.00 0.00 67 1011.7
20260906225825 91 200 2.0 5.0 0.00 0.00 0.00 67 1011.7
20260906225339 91 145 0.0 4.0 0.00 0.00 0.00 69 1011.7
20260906224848 90 129 1.0 5.0 0.00 0.00 0.00 69 1011.7
20260906224322 89 204 3.0 5.0 0.00 0.00 0.00 71 1012.2
20260906223837 88 202 4.0 5.0 0.00 0.00 0.00 72 1012.2
20260906223346 87 209 0.0 0.0 0.00 0.00 0.00 77 1012.2
20260906222837 86 173 0.0 0.0 0.00 0.00 0.00 80 1012.3
20260906222331 86 173 0.0 0.0 0.00 0.00 0.00 79 1012.3
20260906221842 86 173 0.0 0.0 0.00 0.00 0.00 79 1012.3
20260906221355 85 173 0.0 0.0 0.00 0.00 0.00 79 1012.3
20260906220828 85 173 0.0 0.0 0.00 0.00 0.00 80 1012.3
20260906220321 85 189 0.0 0.0 0.00 0.00 0.00 81 1012.3
20260906215837 85 153 0.0 0.0 0.00 0.00 0.00 81 1012.8
20260906215328 84 153 0.0 0.0 0.00 0.00 0.00 81 1012.8
20260906214822 84 130 0.0 0.0 0.00 0.00 0.00 83 1012.8
20260906214335 84 130 0.0 0.0 0.00 0.00 0.00 83 1012.8
20260906213832 84 130 0.0 0.0 0.00 0.00 0.00 83 1012.8
20260906213323 84 130 0.0 0.0 0.00 0.00 0.00 82 1012.8
20260906212840 84 130 0.0 0.0 0.00 0.00 0.00 82 1013.0
20260906212351 84 130 0.0 1.0 0.00 0.00 0.00 81 1013.0
20260906211822 84 130 0.0 2.0 0.00 0.00 0.00 82 1013.0
20260906211333 84 130 0.0 3.0 0.00 0.00 0.00 81 1013.3
20260906210828 84 131 1.0 3.0 0.00 0.00 0.00 81 1013.3
20260906210322 84 163 0.0 0.0 0.00 0.00 0.00 82 1013.3
20260906205831 84 163 0.0 0.0 0.00 0.00 0.00 81 1013.4
20260906205324 84 163 0.0 0.0 0.00 0.00 0.00 81 1013.4
20260906204833 84 163 0.0 0.0 0.00 0.00 0.00 81 1013.4
20260906204327 84 163 0.0 0.0 0.00 0.00 0.00 81 1013.5
20260906203841 84 163 0.0 4.0 0.00 0.00 0.00 81 1013.5
20260906203335 84 163 0.0 4.0 0.00 0.00 0.00 80 1013.5
20260906202851 84 236 0.0 4.0 0.00 0.00 0.00 80 1013.3
20260906202344 84 182 0.0 4.0 0.00 0.00 0.00 80 1013.3
20260906201859 84 149 2.0 5.0 0.00 0.00 0.00 80 1013.3
20260906201353 84 198 1.0 5.0 0.00 0.00 0.00 80 1013.5
20260906200823 84 211 0.0 7.0 0.00 0.00 0.00 81 1013.5
20260906200337 84 233 2.0 9.0 0.00 0.00 0.00 80 1013.5
20260906195828 84 191 6.0 9.0 0.00 0.00 0.00 81 1013.3
20260906195331 83 220 2.0 9.0 0.00 0.00 0.00 83 1013.3
20260906194826 83 203 4.0 9.0 0.00 0.00 0.00 84 1013.3
20260906194338 82 198 4.0 7.0 0.00 0.00 0.00 85 1013.8
20260906193832 82 186 2.0 9.0 0.00 0.00 0.00 88 1013.8
20260906193344 81 182 4.0 10.0 0.00 0.00 0.00 88 1013.8
20260906192855 81 172 6.0 13.0 0.00 0.00 0.00 90 1014.3
20260906192325 81 196 7.0 13.0 0.00 0.00 0.00 90 1014.3
20260906191821 81 162 3.0 4.0 0.00 0.00 0.00 94 1014.3
20260906191328 80 153 1.0 4.0 0.00 0.00 0.00 94 1014.3
20260906190822 80 140 1.0 4.0 0.00 0.00 0.00 94 1014.3
20260906190336 80 135 1.0 3.0 0.00 0.00 0.00 94 1014.3
20260906185826 80 96 0.0 3.0 0.00 0.00 0.00 94 1014.5
20260906185340 80 96 0.0 4.0 0.00 0.00 0.00 94 1014.5
20260906184833 80 94 2.0 4.0 0.00 0.00 0.00 94 1014.5
20260906184324 80 64 0.0 0.0 0.00 0.00 0.00 94 1014.4
20260906183837 80 64 0.0 1.0 0.00 0.00 0.00 94 1014.4
20260906183329 80 68 0.0 1.0 0.00 0.00 0.00 94 1014.4
20260906182841 80 68 0.0 0.0 0.00 0.00 0.00 94 1014.7
20260906182334 80 68 0.0 0.0 0.00 0.00 0.00 94 1014.7
20260906181829 80 78 0.0 0.0 0.00 0.00 0.00 94 1014.7
20260906181324 80 83 0.0 2.0 0.00 0.00 0.00 93 1014.7
20260906180838 80 83 0.0 2.0 0.00 0.00 0.00 93 1014.7
20260906180333 80 86 0.0 2.0 0.00 0.00 0.00 93 1014.7
20260906175824 80 335 0.0 0.0 0.00 0.00 0.00 93 1014.8
20260906175335 80 335 0.0 0.0 0.00 0.00 0.00 93 1014.8
20260906174847 80 335 0.0 3.0 0.00 0.00 0.00 92 1014.8
20260906174401 80 325 0.0 6.0 0.00 0.00 0.00 92 1014.8
20260906173833 80 135 4.0 8.0 0.00 0.00 0.00 89 1014.8
20260906173326 80 176 2.0 9.0 0.00 0.00 0.00 88 1014.8
20260906172838 81 110 2.0 9.0 0.00 0.00 0.00 87 1015.0
20260906172330 83 100 3.0 8.0 0.00 0.00 0.00 85 1015.0
20260906171824 85 89 2.0 6.0 0.00 0.00 0.00 82 1015.0
20260906171337 85 246 4.0 7.0 0.00 0.00 0.00 78 1014.9
20260906170829 85 249 3.0 9.0 0.00 0.00 0.00 78 1014.9
20260906170324 86 253 3.0 10.0 0.00 0.00 0.00 78 1014.9
20260906165830 87 213 4.0 10.0 0.00 0.00 0.00 76 1014.7
20260906165322 88 154 4.0 6.0 0.00 0.00 0.00 75 1014.7
20260906164837 88 258 0.0 5.0 0.00 0.00 0.00 77 1014.7
20260906164329 88 256 2.0 5.0 0.00 0.00 0.00 76 1014.7
20260906163840 88 242 3.0 4.0 0.00 0.00 0.00 75 1014.7
20260906163343 88 312 1.0 4.0 0.00 0.00 0.00 75 1014.7
20260906162834 89 323 3.0 6.0 0.00 0.00 0.00 74 1014.8
20260906162327 88 105 3.0 6.0 0.00 0.00 0.00 75 1014.8
20260906161843 88 72 2.0 4.0 0.00 0.00 0.00 76 1014.8
20260906161359 88 61 1.0 3.0 0.00 0.00 0.00 77 1014.7
20260906160849 88 11 1.0 3.0 0.00 0.00 0.00 78 1014.7
20260906160321 87 299 1.0 3.0 0.00 0.00 0.00 78 1014.7
20260906155830 87 309 1.0 4.0 0.00 0.00 0.00 78 1014.8
20260906155325 88 295 2.0 4.0 0.00 0.00 0.00 78 1014.8
20260906154840 88 44 1.0 2.0 0.00 0.00 0.00 80 1014.8
20260906154352 87 166 0.0 0.0 0.00 0.00 0.00 80 1014.9
20260906153848 86 94 0.0 0.0 0.00 0.00 0.00 80 1014.8
20260906153335 86 225 0.0 0.0 0.00 0.00 0.00 80 1014.8
20260906152826 86 225 0.0 0.0 0.00 0.00 0.00 81 1014.8
20260906152321 86 78 0.0 3.0 0.00 0.00 0.00 82 1014.8
20260906151838 86 82 0.0 3.0 0.00 0.00 0.00 83 1014.8
20260906151332 86 67 0.0 1.0 0.00 0.00 0.00 83 1014.8
20260906150843 86 261 0.0 3.0 0.00 0.00 0.00 83 1014.8
20260906150335 85 261 0.0 3.0 0.00 0.00 0.00 83 1014.8
20260906145823 85 219 2.0 3.0 0.00 0.00 0.00 84 1014.8
20260906145343 85 352 1.0 3.0 0.00 0.00 0.00 85 1014.8
20260906144858 85 294 1.0 3.0 0.00 0.00 0.00 86 1014.8
20260906144350 85 343 1.0 2.0 0.00 0.00 0.00 86 1014.8
20260906143841 85 92 0.0 2.0 0.00 0.00 0.00 87 1014.8
20260906143333 84 73 1.0 2.0 0.00 0.00 0.00 88 1014.8
20260906142845 84 324 0.0 2.0 0.00 0.00 0.00 88 1014.8
20260906142357 84 17 1.0 4.0 0.00 0.00 0.00 88 1014.8
20260906141833 83 131 2.0 4.0 0.00 0.00 0.00 89 1014.8
20260906141345 83 134 0.0 4.0 0.00 0.00 0.00 89 1014.6
20260906140857 83 134 1.0 4.0 0.00 0.00 0.00 90 1014.6
20260906140327 82 129 1.0 4.0 0.00 0.00 0.00 91 1014.6
20260906135854 82 139 2.0 4.0 0.00 0.00 0.00 92 1014.4
20260906135325 82 146 0.0 0.0 0.00 0.00 0.00 93 1014.4
20260906134837 81 68 0.0 0.0 0.00 0.00 0.00 94 1014.4
20260906134331 81 68 0.0 1.0 0.00 0.00 0.00 94 1014.3
20260906133844 80 68 0.0 3.0 0.00 0.00 0.00 95 1014.3
20260906133404 80 147 0.0 3.0 0.00 0.00 0.00 95 1014.3
20260906132835 80 147 0.0 0.0 0.00 0.00 0.00 95 1014.3
20260906132328 80 147 0.0 0.0 0.00 0.00 0.00 95 1014.3
20260906131841 80 75 0.0 0.0 0.00 0.00 0.00 95 1014.3
20260906131335 79 75 0.0 0.0 0.00 0.00 0.00 95 1014.2
20260906130824 79 120 0.0 0.0 0.00 0.00 0.00 95 1014.2
20260906130340 79 120 0.0 0.0 0.00 0.00 0.00 95 1014.2
20260906125830 79 120 0.0 0.0 0.00 0.00 0.00 95 1013.8
20260906125323 79 120 0.0 0.0 0.00 0.00 0.00 95 1013.8
20260906124835 79 120 0.0 0.0 0.00 0.00 0.00 95 1013.8
20260906124347 79 120 0.0 0.0 0.00 0.00 0.00 95 1013.7
20260906123856 79 120 0.0 0.0 0.00 0.00 0.00 95 1013.7
20260906123330 79 120 0.0 0.0 0.00 0.00 0.00 95 1013.7
20260906122823 79 120 0.0 0.0 0.00 0.00 0.00 95 1013.6
20260906122335 79 120 0.0 0.0 0.00 0.00 0.00 95 1013.6
20260906121829 79 120 0.0 0.0 0.00 0.00 0.00 95 1013.6
20260906121341 79 120 0.0 0.0 0.00 0.00 0.00 95 1013.3
20260906120852 79 120 0.0 0.0 0.00 0.00 0.00 95 1013.3
20260906120328 79 120 0.0 0.0 0.00 0.00 0.00 95 1013.3
20260906115838 79 120 0.0 0.0 0.00 0.00 0.00 95 1013.2
20260906115329 79 120 0.0 0.0 0.00 0.00 0.00 95 1013.2
20260906114841 79 120 0.0 0.0 0.00 0.00 0.00 95 1013.2
20260906114332 79 120 0.0 0.0 0.00 0.00 0.00 95 1012.8
20260906113829 79 120 0.0 0.0 0.00 0.00 0.00 95 1012.8
20260906113338 79 120 0.0 0.0 0.00 0.00 0.00 94 1012.8
20260906112829 79 120 0.0 0.0 0.00 0.00 0.00 94 1012.9
20260906112344 79 120 0.0 0.0 0.00 0.00 0.00 94 1012.9
20260906111835 79 120 0.0 0.0 0.00 0.00 0.00 94 1012.9
20260906111327 79 120 0.0 0.0 0.00 0.00 0.00 94 1012.8
20260906110841 79 120 0.0 0.0 0.00 0.00 0.00 94 1012.8
20260906110336 79 120 0.0 0.0 0.00 0.00 0.00 94 1012.8
20260906105830 79 120 0.0 0.0 0.00 0.00 0.00 94 1012.8
20260906105321 79 120 0.0 0.0 0.00 0.00 0.00 94 1012.8
20260906104819 79 120 0.0 0.0 0.00 0.00 0.00 94 1012.8
20260906104402 79 120 0.0 0.0 0.00 0.00 0.00 94 1012.8
20260906103855 79 120 0.0 0.0 0.00 0.00 0.00 94 1012.8
20260906103331 79 120 0.0 0.0 0.00 0.00 0.00 94 1012.8
20260906102905 79 120 0.0 0.0 0.00 0.00 0.00 93 1012.5
20260906102355 80 120 0.0 0.0 0.00 0.00 0.00 93 1012.5
20260906101827 80 120 0.0 0.0 0.00 0.00 0.00 93 1012.5
20260906101338 80 120 0.0 0.0 0.00 0.00 0.00 93 1012.3
20260906100832 80 120 0.0 0.0 0.00 0.00 0.00 93 1012.3
20260906100323 80 120 0.0 0.0 0.00 0.00 0.00 93 1012.3
20260906095902 80 120 0.0 0.0 0.00 0.00 0.00 93 1012.5
20260906095333 80 120 0.0 0.0 0.00 0.00 0.00 93 1012.5
20260906094826 80 120 0.0 0.0 0.00 0.00 0.00 93 1012.5
20260906094338 80 120 0.0 0.0 0.00 0.00 0.00 92 1012.4
20260906093852 80 120 0.0 0.0 0.00 0.00 0.00 92 1012.4
20260906093323 80 120 0.0 0.0 0.00 0.00 0.00 92 1012.4
20260906092903 80 120 0.0 0.0 0.00 0.00 0.00 92 1012.2
20260906092356 80 120 0.0 0.0 0.00 0.00 0.00 92 1012.2
20260906091831 81 120 0.0 0.0 0.00 0.00 0.00 91 1012.2
20260906091326 81 120 0.0 0.0 0.00 0.00 0.00 91 1012.2
20260906090839 81 120 0.0 0.0 0.00 0.00 0.00 91 1012.2
20260906090332 81 120 0.0 0.0 0.00 0.00 0.00 91 1012.2
20260906085823 81 120 0.0 0.0 0.00 0.00 0.00 91 1012.2
20260906085358 81 120 0.0 0.0 0.00 0.00 0.00 91 1012.2
20260906084850 81 120 0.0 0.0 0.00 0.00 0.00 91 1012.2
20260906084322 81 120 0.0 0.0 0.00 0.00 0.00 91 1012.2
20260906083835 81 120 0.0 0.0 0.00 0.00 0.00 90 1012.2
20260906083329 81 120 0.0 0.0 0.00 0.00 0.00 90 1012.2
20260906082826 81 120 0.0 0.0 0.00 0.00 0.00 90 1012.3
20260906082337 81 120 0.0 0.0 0.00 0.00 0.00 90 1012.3
20260906081828 81 120 0.0 0.0 0.00 0.00 0.00 90 1012.3
20260906081323 81 120 0.0 0.0 0.00 0.00 0.00 89 1012.2
20260906080902 81 120 0.0 0.0 0.00 0.00 0.00 89 1012.2
20260906080352 82 120 0.0 0.0 0.00 0.00 0.00 89 1012.2
20260906075824 82 120 0.0 0.0 0.00 0.00 0.00 89 1012.3
20260906075335 82 120 0.0 0.0 0.00 0.00 0.00 88 1012.3
20260906074848 82 120 0.0 0.0 0.00 0.00 0.00 88 1012.3
20260906074339 82 120 0.0 0.0 0.00 0.00 0.00 88 1012.6
20260906073856 82 120 0.0 0.0 0.00 0.00 0.00 88 1012.6
20260906073328 82 177 0.0 0.0 0.00 0.00 0.00 88 1012.6
20260906072840 82 177 0.0 0.0 0.00 0.00 0.00 88 1012.7
20260906072335 82 188 0.0 1.0 0.00 0.00 0.00 88 1012.7
20260906071829 82 188 0.0 3.0 0.00 0.00 0.00 88 1012.7
20260906071337 82 171 0.0 4.0 0.00 0.00 0.00 88 1012.7
20260906070832 82 208 1.0 4.0 0.00 0.00 0.00 88 1012.7
20260906070348 82 189 0.0 2.0 0.00 0.00 0.00 88 1012.7
20260906065907 82 187 0.0 3.0 0.00 0.00 0.00 87 1012.8
20260906065401 82 185 0.0 4.0 0.00 0.00 0.00 87 1012.8
20260906064833 82 187 2.0 5.0 0.00 0.00 0.00 87 1012.8
20260906064327 82 174 2.0 5.0 0.00 0.00 0.00 87 1012.8
20260906063840 82 183 0.0 3.0 0.00 0.00 0.00 87 1012.8
20260906063333 82 175 0.0 1.0 0.00 0.00 0.00 87 1012.8
20260906062827 82 175 0.0 1.0 0.00 0.00 0.00 87 1012.8
20260906062327 82 175 0.0 4.0 0.00 0.00 0.00 87 1012.8
20260906061822 82 175 0.0 4.0 0.00 0.00 0.00 86 1012.8
20260906061338 82 188 0.0 3.0 0.00 0.00 0.00 86 1012.8
20260906060831 82 182 2.0 4.0 0.00 0.00 0.00 86 1012.8
20260906060322 82 169 2.0 4.0 0.00 0.00 0.00 86 1012.8
20260906055855 82 172 0.0 4.0 0.00 0.00 0.00 86 1012.8
20260906055345 82 168 1.0 2.0 0.00 0.00 0.00 86 1012.8
20260906054853 82 177 1.0 4.0 0.00 0.00 0.00 86 1012.8
20260906054409 82 170 0.0 4.0 0.00 0.00 0.00 86 1012.8
20260906053859 82 209 2.0 5.0 0.00 0.00 0.00 87 1012.8
20260906053330 82 168 3.0 5.0 0.00 0.00 0.00 87 1012.8
20260906052823 82 191 1.0 5.0 0.00 0.00 0.00 87 1012.8
20260906052333 82 192 4.0 5.0 0.00 0.00 0.00 88 1012.8
20260906051845 82 174 1.0 4.0 0.00 0.00 0.00 89 1012.8
20260906051334 81 184 0.0 2.0 0.00 0.00 0.00 90 1012.8
20260906050848 81 182 0.0 2.0 0.00 0.00 0.00 90 1012.8
20260906050319 81 134 1.0 2.0 0.00 0.00 0.00 91 1012.8
20260906045828 81 134 0.0 0.0 0.00 0.00 0.00 90 1012.8
20260906045339 81 134 0.0 0.0 0.00 0.00 0.00 90 1012.8
20260906044832 81 134 0.0 0.0 0.00 0.00 0.00 90 1012.8
20260906044345 81 134 0.0 0.0 0.00 0.00 0.00 90 1012.8
20260906043842 81 134 0.0 0.0 0.00 0.00 0.00 90 1012.8
20260906043329 81 134 0.0 0.0 0.00 0.00 0.00 90 1012.8
20260906042841 81 134 0.0 0.0 0.00 0.00 0.00 90 1012.8
20260906042332 81 134 0.0 0.0 0.00 0.00 0.00 90 1012.8
20260906041844 81 134 0.0 0.0 0.00 0.00 0.00 90 1012.8
20260906041326 81 134 0.0 0.0 0.00 0.00 0.00 89 1012.9
20260906040838 81 134 0.0 0.0 0.00 0.00 0.00 89 1012.9
20260906040333 81 134 0.0 0.0 0.00 0.00 0.00 89 1012.9
20260906035844 81 134 0.0 1.0 0.00 0.00 0.00 89 1012.9
20260906035356 81 134 0.0 1.0 0.00 0.00 0.00 89 1012.9
20260906034827 81 134 0.0 2.0 0.00 0.00 0.00 89 1012.9
20260906034324 81 134 0.0 2.0 0.00 0.00 0.00 89 1013.1
20260906033837 81 134 0.0 0.0 0.00 0.00 0.00 89 1013.1
20260906033330 81 134 0.0 1.0 0.00 0.00 0.00 89 1013.1
20260906032825 81 134 0.0 4.0 0.00 0.00 0.00 89 1013.0
20260906032341 81 134 1.0 4.0 0.00 0.00 0.00 89 1013.0
20260906031855 81 134 0.0 3.0 0.00 0.00 0.00 89 1013.0
20260906031348 81 134 0.0 3.0 0.00 0.00 0.00 89 1012.8
20260906030839 81 128 0.0 2.0 0.00 0.00 0.00 89 1012.8
20260906030331 81 128 0.0 2.0 0.00 0.00 0.00 89 1012.8
20260906025841 81 128 0.0 4.0 0.00 0.00 0.00 89 1012.8
20260906025353 81 134 3.0 4.0 0.00 0.00 0.00 89 1012.8
20260906024825 81 62 0.0 1.0 0.00 0.00 0.00 89 1012.8
20260906024337 81 62 0.0 2.0 0.00 0.00 0.00 89 1012.5
20260906023828 81 62 1.0 2.0 0.00 0.00 0.00 89 1012.5
20260906023342 81 70 0.0 0.0 0.00 0.00 0.00 89 1012.5
20260906022832 81 331 0.0 2.0 0.00 0.00 0.00 89 1012.3
20260906022322 81 331 0.0 2.0 0.00 0.00 0.00 89 1012.3
20260906021838 81 87 0.0 2.0 0.00 0.00 0.00 89 1012.3
20260906021329 81 74 0.0 2.0 0.00 0.00 0.00 88 1012.2
20260906020824 81 126 0.0 3.0 0.00 0.00 0.00 88 1012.2
20260906020339 81 60 0.0 3.0 0.00 0.00 0.00 88 1012.2
20260906015828 81 54 1.0 3.0 0.00 0.00 0.00 88 1011.9
20260906015349 82 75 0.0 3.0 0.00 0.00 0.00 89 1011.9
20260906014900 82 62 1.0 4.0 0.00 0.00 0.00 89 1011.9
20260906014331 82 11 0.0 4.0 0.00 0.00 0.00 89 1011.7
20260906013843 81 88 1.0 4.0 0.00 0.00 0.00 89 1011.7
20260906013335 81 127 0.0 3.0 0.00 0.00 0.00 89 1011.7
20260906012845 81 63 0.0 0.0 0.00 0.00 0.00 89 1011.7
20260906012339 82 63 0.0 0.0 0.00 0.00 0.00 89 1011.7
20260906011831 82 63 0.0 0.0 0.00 0.00 0.00 88 1011.7
20260906011323 82 63 0.0 0.0 0.00 0.00 0.00 88 1011.7
20260906010834 82 63 0.0 0.0 0.00 0.00 0.00 88 1011.7
20260906010325 82 63 0.0 2.0 0.00 0.00 0.00 87 1011.7
20260906005840 82 69 0.0 2.0 0.00 0.00 0.00 87 1011.9
20260906005331 82 101 0.0 4.0 0.00 0.00 0.00 87 1011.9
20260906004846 82 101 0.0 4.0 0.00 0.00 0.00 86 1011.9
20260906004359 82 69 0.0 0.0 0.00 0.00 0.00 85 1012.2
20260906003831 83 69 0.0 0.0 0.00 0.00 0.00 85 1012.2
20260906003344 83 69 0.0 0.0 0.00 0.00 0.00 84 1012.2
20260906002837 83 70 0.0 0.0 0.00 0.00 0.00 83 1012.1
20260906002356 83 100 0.0 3.0 0.00 0.00 0.00 81 1012.1
20260906001826 84 68 0.0 3.0 0.00 0.00 0.00 80 1012.1
20260906001337 84 54 1.0 6.0 0.00 0.00 0.00 79 1012.2
20260906000831 84 55 2.0 6.0 0.00 0.00 0.00 78 1012.2
20260906000326 85 73 2.0 5.0 0.00 0.00 0.00 77 1012.2
20260905235854 85 50 0.0 5.0 0.00 0.00 0.00 76 1012.3
20260905235326 85 68 0.0 6.0 0.00 0.00 0.00 76 1012.3